Dublin, Ireland

6:20 AM GMT on February 23, 2017 (GMT +0000)
Dublin International

Weather History for EIDW - May, 2014

Change the Weather History Date:

Sunday, May 11, 2014

  Actual Average Record
Temperature  
Mean Temperature 51 °F -  
Max Temperature 56 °F 60 °F 66 °F (2006)
Min Temperature 46 °F 46 °F 33 °F (2005)
Degree Days  
Heating Degree Days 14    
Growing Degree Days 1 (Base 50)    
Moisture  
Dew Point 46 °F    
Average Humidity 86    
Maximum Humidity 100    
Minimum Humidity 64    
Precipitation  
Precipitation 0.12 in 0.07 in - ()
Sea Level Pressure  
Sea Level Pressure 29.57 in    
Wind  
Wind Speed 20 mph ()    
Max Wind Speed 25 mph    
Max Gust Speed 36 mph    
Visibility 7.5 miles    
Events Rain    
Averages and records for this station are not official NWS values.
T = Trace of Precipitation, MM = Missing Value Source: Averaged Metar Reports

Daily Weather History Graph

Daily Weather History Graph

Search for Another Location

Airport or City:

Trip Planner

Search our weather history database for the weather conditions in past years. The results will help you decide how hot, cold, wet, or windy it might be!

Date:

Astronomy

May. 11, 2014 Rise Set
Actual Time 5:31 AM IST 9:11 PM IST
Civil Twilight 4:48 AM IST 9:55 PM IST
Nautical Twilight 3:48 AM IST 10:56 PM IST
Astronomical Twilight 2:09 AM IST 12:41 AM IST
Moon 5:24 PM IST (5/11) 4:02 AM IST (5/11)
Length of Visible Light 17h 06m
Length of Day
15h 40m
Waxing Gibbous, 87% of the Moon is Illuminated
May 11
Waxing Gibbous
May 14
Full
May 21
Last Quarter
May 28
New
Jun 5
First Quarter

Hourly Weather History & Observations

Time (IST) Temp. Windchill Dew Point Humidity Pressure Visibility Wind Dir Wind Speed Gust Speed Precip Events Conditions
12:00 AM 49 °F - 46 °F 87% 29.44 in 6 mi West 22.4 mph - - Rain Light Rain Showers
12:00 AM 48.2 °F - 46.4 °F 93% 29.42 in 5.6 mi West 21.9 mph - N/A Rain Light Rain Showers
12:30 AM 48.2 °F - 46.4 °F 93% 29.42 in 6.2 mi West 21.9 mph - N/A   Mostly Cloudy
1:00 AM 48 °F - 46 °F 90% 29.45 in 6 mi West 22.4 mph - - Rain Light Rain Showers
1:00 AM 48.2 °F - 46.4 °F 93% 29.44 in 5.6 mi West 21.9 mph - N/A Rain Light Rain Showers
1:30 AM 48.2 °F - 46.4 °F 93% 29.44 in 6.2 mi West 20.7 mph - N/A Rain Light Rain Showers
2:00 AM 48 °F - 46 °F 89% 29.46 in 12 mi West 20.1 mph - - Rain Light Rain Showers
2:00 AM 48.2 °F - 46.4 °F 93% 29.44 in 6.2 mi West 20.7 mph - N/A   Mostly Cloudy
2:30 AM 48.2 °F - 46.4 °F 93% 29.44 in 6.2 mi West 18.4 mph - N/A Rain Light Rain Showers
3:00 AM 48 °F - 46 °F 89% 29.47 in 12 mi West 20.1 mph - - Rain Light Rain Showers
3:00 AM 48.2 °F - 46.4 °F 93% 29.44 in 6.2 mi West 19.6 mph - N/A   Mostly Cloudy
3:30 AM 48.2 °F - 46.4 °F 93% 29.44 in 6.2 mi West 20.7 mph - N/A Rain Light Rain Showers
4:00 AM 48 °F - 46 °F 88% 29.47 in 12 mi West 22.4 mph - - Rain Light Rain Showers
4:00 AM 48.2 °F - 46.4 °F 93% 29.44 in 6.2 mi West 20.7 mph - N/A   Mostly Cloudy
4:30 AM 46.4 °F 39.2 °F 46.4 °F 100% 29.47 in 3.7 mi West 18.4 mph - N/A Rain Light Rain
5:00 AM 47 °F - 46 °F 92% 29.49 in 6 mi West 22.4 mph - - Rain Light Rain
5:00 AM 46.4 °F 38.5 °F 46.4 °F 100% 29.47 in 5.6 mi West 21.9 mph - N/A Rain Light Rain
5:30 AM 46.4 °F 38.5 °F 44.6 °F 93% 29.47 in 6.2 mi West 21.9 mph - N/A Rain Light Rain Showers
6:00 AM 47 °F - 45 °F 90% 29.49 in 9 mi West 22.4 mph - - Rain Light Rain Showers
6:00 AM 46.4 °F 38.1 °F 44.6 °F 93% 29.47 in 6.2 mi West 24.2 mph - N/A Rain Light Rain Showers
6:30 AM 46.4 °F 38.5 °F 44.6 °F 93% 29.47 in 6.2 mi West 21.9 mph - N/A Rain Light Rain Showers
7:00 AM 47 °F - 45 °F 91% 29.52 in 7 mi West 22.4 mph - - Rain Light Rain Showers
7:00 AM 46.4 °F 38.3 °F 44.6 °F 93% 29.50 in 6.2 mi West 23.0 mph - N/A Rain Light Rain Showers
7:30 AM 46.4 °F 38.1 °F 44.6 °F 93% 29.50 in 6.2 mi West 24.2 mph 35.7 mph N/A Rain Light Rain Showers
8:00 AM 48 °F - 46 °F 90%  in 10 mi West 22.4 mph - - Rain Light Rain Showers
8:00 AM 48.2 °F - 46.4 °F 93% 29.50 in 6.2 mi West 21.9 mph - N/A   Mostly Cloudy
8:30 AM 48.2 °F - 46.4 °F 93% 29.53 in 5.6 mi West 21.9 mph - N/A Rain Light Rain Showers
9:00 AM 48 °F - 46 °F 92% 29.55 in 5 mi West 24.6 mph - - Rain Light Rain Showers
9:00 AM 48.2 °F - 46.4 °F 93% 29.53 in 5.0 mi West 23.0 mph - N/A Rain Light Rain Showers
9:30 AM 48.2 °F - 46.4 °F 93% 29.53 in 5.6 mi West 24.2 mph - N/A Rain Light Rain Showers
10:00 AM 50 °F - 46 °F 82% 29.57 in 12 mi West 22.4 mph - - Rain Light Rain Showers
10:00 AM 50.0 °F - 46.4 °F 87% 29.56 in 6.2 mi West 21.9 mph - N/A   Mostly Cloudy
10:30 AM 50.0 °F - 46.4 °F 87% 29.56 in 6.2 mi West 23.0 mph - N/A   Mostly Cloudy
11:00 AM 51 °F - 47 °F 80% 29.57 in 11 mi West 22.4 mph - - Rain Light Rain Showers
11:00 AM 50.0 °F - 48.2 °F 94% 29.56 in 6.2 mi West 23.0 mph - N/A   Mostly Cloudy
11:30 AM 51.8 °F - 48.2 °F 88% 29.56 in 5.0 mi West 25.3 mph - N/A Rain Light Rain Showers
12:00 PM 52 °F - 47 °F 76% 29.58 in 6 mi West 20.1 mph - - Rain Light Rain Showers
12:00 PM 51.8 °F - 48.2 °F 88% 29.56 in 5.6 mi West 20.7 mph - N/A Rain Light Rain Showers
12:30 PM 51.8 °F - 46.4 °F 82% 29.56 in 5.6 mi West 23.0 mph - N/A Rain Light Rain Showers
1:00 PM 51 °F - 48 °F 85% 29.60 in 5 mi West 20.1 mph - - Rain Heavy Rain Showers
1:00 PM 50.0 °F - 48.2 °F 94% 29.59 in 5.0 mi West 19.6 mph - N/A Rain Rain Showers
1:30 PM 50.0 °F - 46.4 °F 87% 29.59 in 6.2 mi West 19.6 mph - N/A   Scattered Clouds
2:00 PM 53 °F - 47 °F 74% 29.60 in 9 mi West 20.1 mph - - Rain Light Rain Showers
2:00 PM 51.8 °F - 46.4 °F 82% 29.59 in 6.2 mi West 19.6 mph - N/A Rain Light Rain Showers
2:30 PM 53.6 °F - 48.2 °F 82% 29.59 in 6.2 mi West 19.6 mph - N/A   Scattered Clouds
3:00 PM 52 °F - 47 °F 79% 29.62 in 11 mi West 20.1 mph - - Rain Light Rain Showers
3:00 PM 53.6 °F - 46.4 °F 77% 29.59 in 6.2 mi West 19.6 mph - N/A Rain Light Rain Showers
3:30 PM 53.6 °F - 46.4 °F 77% 29.62 in 6.2 mi West 23.0 mph - N/A   Scattered Clouds
4:00 PM 53 °F - 45 °F 67% 29.63 in 16 mi West 24.6 mph - - Rain Light Rain Showers
4:00 PM 51.8 °F - 46.4 °F 82% 29.62 in 6.2 mi West 23.0 mph - N/A   Scattered Clouds
4:30 PM 55.4 °F - 46.4 °F 72% 29.62 in 6.2 mi WSW 21.9 mph - N/A   Mostly Cloudy
5:00 PM 53 °F - 44 °F 64% 29.65 in 16 mi West 24.6 mph - - Rain Light Rain Showers
5:00 PM 53.6 °F - 44.6 °F 72% 29.62 in 6.2 mi West 25.3 mph - N/A   Scattered Clouds
5:30 PM 55.4 °F - 44.6 °F 67% 29.62 in 6.2 mi West 21.9 mph - N/A   Mostly Cloudy
6:00 PM 53 °F - 46 °F 69% 29.67 in 12 mi West 22.4 mph - - Rain Light Rain Showers
6:00 PM 53.6 °F - 46.4 °F 77% 29.65 in 6.2 mi West 21.9 mph - N/A Rain Light Rain Showers
6:30 PM 53.6 °F - 46.4 °F 77% 29.65 in 6.2 mi West 23.0 mph - N/A   Partly Cloudy
7:00 PM 52 °F - 44 °F 68% 29.68 in 19 mi WSW 17.9 mph - - Rain Light Rain Showers
7:00 PM 51.8 °F - 44.6 °F 76% 29.65 in 6.2 mi WSW 18.4 mph - N/A   Mostly Cloudy
7:30 PM 51.8 °F - 46.4 °F 82% 29.68 in 6.2 mi West 21.9 mph - N/A   Partly Cloudy
8:00 PM 49 °F - 45 °F 79% 29.70 in 25 mi West 20.1 mph - - Rain Light Rain Showers
8:00 PM 50.0 °F - 44.6 °F 82% 29.68 in 6.2 mi West 18.4 mph - N/A Rain Light Rain Showers
8:30 PM 48.2 °F - 44.6 °F 87% 29.68 in 6.2 mi WSW 18.4 mph - N/A   Scattered Clouds
9:00 PM 48 °F - 45 °F 85% 29.71 in 25 mi WSW 15.7 mph - - Rain Light Rain Showers
9:00 PM 48.2 °F - 44.6 °F 87% 29.68 in 6.2 mi WSW 17.3 mph - N/A   Scattered Clouds
9:30 PM 48.2 °F - 44.6 °F 87% 29.71 in 6.2 mi WSW 15.0 mph - N/A   Mostly Cloudy
10:00 PM 47 °F - 45 °F 90% 29.73 in 19 mi West 15.7 mph - - Rain Light Rain Showers
10:00 PM 48.2 °F - 44.6 °F 87% 29.71 in 6.2 mi West 16.1 mph - N/A Rain Light Rain Showers
10:30 PM 46.4 °F 39.8 °F 44.6 °F 93% 29.71 in 6.2 mi WSW 16.1 mph - N/A   Mostly Cloudy
11:00 PM 47 °F - 45 °F 90% 29.74 in 19 mi West 17.9 mph - - Rain Light Rain Showers
11:00 PM 48.2 °F - 44.6 °F 87% 29.71 in 6.2 mi West 18.4 mph - N/A   Mostly Cloudy
11:30 PM 46.4 °F 39.8 °F 44.6 °F 93% 29.74 in 6.2 mi WSW 16.1 mph - N/A   Mostly Cloudy